Location: Alsip
(41.6689°N, 87.7387°W)
Time: 22:12:46
(UTC+00:00)

Cosmos 1833 Rocket - Visible Passes

Search period start: 18 June 2021 00:00
Search period end: 28 June 2021 00:00
Orbit: 831 x 841 km, 71.0° (Epoch: 18 June)

Date Brightness Start Highest point End Pass type
(mag) Time Alt. Az. Time Alt. Az. Time Alt. Az.
18 Jun 5.1 08:20:57 10° SE 08:23:54 15° E 08:26:52 10° ENE visible
19 Jun 5.1 08:04:42 10° SE 08:07:14 13° E 08:09:46 10° ENE visible
20 Jun 5.1 07:48:34 10° ESE 07:50:33 12° E 07:52:33 10° ENE visible
20 Jun 2.7 09:27:56 10° SSW 09:33:36 89° WNW 09:39:17 10° NNE visible
21 Jun 5.2 07:32:42 10° ESE 07:33:53 11° E 07:35:03 10° E visible
21 Jun 2.8 09:11:12 10° SSW 09:16:51 85° ESE 09:22:32 10° NNE visible
22 Jun 2.8 08:55:10 14° SSW 09:00:06 78° ESE 09:05:47 10° NNE visible
23 Jun 2.8 08:39:04 18° SSW 08:43:22 72° ESE 08:49:01 10° NNE visible
24 Jun 2.9 08:22:55 22° S 08:26:38 66° ESE 08:32:15 10° NNE visible
25 Jun 3.0 08:06:45 26° S 08:09:54 61° ESE 08:15:29 10° NNE visible
26 Jun 3.1 07:50:32 30° S 07:53:10 55° ESE 07:58:41 10° NNE visible
26 Jun 4.2 09:32:59 10° WSW 09:37:28 24° NW 09:41:58 10° N visible
27 Jun 3.2 07:34:16 33° SSE 07:36:27 51° ESE 07:41:54 10° NE visible
27 Jun 4.1 09:16:02 10° WSW 09:20:40 25° NW 09:25:18 10° N visible
